Phuket, Thailand

8:39 AM ICT on February 26, 2017 (GMT +0700)
Phuket International

Weather History for VTSP - September, 2014

Change the Weather History Date:

Saturday, September 6, 2014

  Actual Average Record
Temperature  
Mean Temperature 82 °F -  
Max Temperature 89 °F 87 °F 96 °F (1997)
Min Temperature 75 °F 76 °F 70 °F (2015)
Cooling Degree Days 17    
Growing Degree Days 32 (Base 50)    
Moisture  
Dew Point 73 °F    
Average Humidity 73    
Maximum Humidity 89    
Minimum Humidity 59    
Precipitation  
Precipitation 0.35 in 0.53 in - ()
Sea Level Pressure  
Sea Level Pressure 29.83 in    
Wind  
Wind Speed 12 mph ()    
Max Wind Speed 23 mph    
Max Gust Speed 34 mph    
Visibility 5.2 miles    
Events Rain    
Averages and records for this station are not official NWS values.
T = Trace of Precipitation, MM = Missing Value Source: Averaged Metar Reports

Daily Weather History Graph

Daily Weather History Graph

Search for Another Location

Airport or City:

Trip Planner

Search our weather history database for the weather conditions in past years. The results will help you decide how hot, cold, wet, or windy it might be!

Date:

Astronomy

Sep. 06, 2014 Rise Set
Actual Time 6:18 AM ICT 6:32 PM ICT
Civil Twilight 5:57 AM ICT 6:53 PM ICT
Nautical Twilight 5:32 AM ICT 7:17 PM ICT
Astronomical Twilight 5:08 AM ICT 7:42 PM ICT
Moon 4:01 PM ICT (9/6) 3:12 AM ICT (9/6)
Length of Visible Light 12h 56m
Length of Day
12h 14m
Waxing Gibbous, 88% of the Moon is Illuminated
Sep 6
Waxing Gibbous
Sep 9
Full
Sep 16
Last Quarter
Sep 24
New
Oct 2
First Quarter

Hourly Weather History & Observations

Time (ICT) Temp. Heat Index Dew Point Humidity Pressure Visibility Wind Dir Wind Speed Gust Speed Precip Events Conditions
12:00 AM 84.2 °F 90.9 °F 73.4 °F 70% 29.86 in 6.2 mi West 11.5 mph - N/A   Mostly Cloudy
12:30 AM 84.2 °F 90.9 °F 73.4 °F 70% 29.86 in 6.2 mi West 12.7 mph - N/A   Mostly Cloudy
1:00 AM 84 °F - 76 °F 71% 29.80 in 6 mi West 8.1 mph - -   Scattered Clouds
1:00 AM 84.2 °F 90.9 °F 73.4 °F 70% 29.83 in 6.2 mi WSW 15.0 mph - N/A   Mostly Cloudy
3:30 AM 82.4 °F 88.2 °F 73.4 °F 74% 29.80 in - West 19.6 mph - N/A   Mostly Cloudy
4:00 AM 80 °F - 77 °F 87% 29.76 in 4 mi WNW 11.5 mph - - Rain Light Rain
4:00 AM 77.0 °F - 69.8 °F 78% 29.80 in 4.3 mi West 23.0 mph - N/A Rain Light Rain
4:30 AM 77.0 °F - 71.6 °F 83% 29.80 in 6.2 mi WSW 5.8 mph - N/A   Mostly Cloudy
5:00 AM 77.0 °F - 71.6 °F 83% 29.80 in 6.2 mi WSW 5.8 mph - N/A   Mostly Cloudy
5:30 AM 82.4 °F 88.2 °F 73.4 °F 74% 29.80 in 6.2 mi West 13.8 mph - N/A   Mostly Cloudy
6:30 AM 82.4 °F 88.2 °F 73.4 °F 74% 29.80 in 6.2 mi West 16.1 mph - N/A   Mostly Cloudy
7:00 AM 84 °F - 74 °F 66% 29.79 in 6 mi WSW 8.1 mph - -   Light Sandstorm
7:00 AM 84.2 °F 90.9 °F 73.4 °F 70% 29.80 in 6.2 mi West 17.3 mph - N/A   Mostly Cloudy
7:30 AM 82.4 °F 87.2 °F 71.6 °F 70% 29.83 in 5.6 mi WSW 11.5 mph - N/A   Mostly Cloudy
8:00 AM 80.6 °F 86.2 °F 75.2 °F 84% 29.86 in 6.2 mi SSW 6.9 mph - N/A   Mostly Cloudy
8:30 AM 82.4 °F 88.2 °F 73.4 °F 74% 29.86 in 3.1 mi Variable 23.0 mph 34.5 mph N/A Rain Rain
9:00 AM 78.8 °F - 69.8 °F 74% 29.86 in 5.6 mi SW 4.6 mph - N/A   Mostly Cloudy
9:30 AM 82.4 °F 88.2 °F 73.4 °F 74% 29.89 in 5.6 mi WSW 11.5 mph 23.0 mph N/A   Mostly Cloudy
10:00 AM 85 °F - 74 °F 64% 29.83 in 6 mi WSW 19.6 mph - -   Partly Cloudy
10:00 AM 84.2 °F 90.9 °F 73.4 °F 70% 29.89 in 5.6 mi WSW 12.7 mph - N/A   Mostly Cloudy
10:30 AM 84.2 °F 90.9 °F 73.4 °F 70% 29.89 in 5.6 mi WSW 12.7 mph - N/A   Mostly Cloudy
11:00 AM 86.0 °F 93.4 °F 73.4 °F 66% 29.86 in 5.6 mi West 12.7 mph - N/A   Mostly Cloudy
11:30 AM 87.8 °F 95.6 °F 73.4 °F 62% 29.86 in 6.2 mi West 18.4 mph - N/A   Mostly Cloudy
12:00 PM 87.8 °F 95.6 °F 73.4 °F 62% 29.86 in 6.2 mi West 17.3 mph - N/A   Mostly Cloudy
12:30 PM 87.8 °F 95.6 °F 73.4 °F 62% 29.83 in 6.2 mi West 17.3 mph - N/A   Mostly Cloudy
1:00 PM 87 °F - 75 °F 59% 29.82 in 6 mi West 18.4 mph - -   Partly Cloudy
1:00 PM 87.8 °F 95.6 °F 73.4 °F 62% 29.83 in 6.2 mi West 19.6 mph - N/A   Mostly Cloudy
1:30 PM 86.0 °F 93.4 °F 73.4 °F 66% 29.83 in 6.2 mi West 20.7 mph - N/A   Mostly Cloudy
2:00 PM 86.0 °F 93.4 °F 73.4 °F 66% 29.80 in 5.6 mi West 20.7 mph - N/A   Mostly Cloudy
2:30 PM 86.0 °F 93.4 °F 73.4 °F 66% 29.80 in 5.6 mi West 18.4 mph - N/A   Mostly Cloudy
3:00 PM 84.2 °F 90.9 °F 73.4 °F 70% 29.80 in 5.6 mi West 18.4 mph - N/A   Mostly Cloudy
3:30 PM 86.0 °F 93.4 °F 73.4 °F 66% 29.80 in 5.6 mi West 17.3 mph - N/A   Mostly Cloudy
4:00 PM 87 °F - 75 °F 60% 29.78 in 6 mi West 11.5 mph - - Rain Light Rain
4:00 PM 86.0 °F 95.1 °F 75.2 °F 70% 29.80 in 5.6 mi West 16.1 mph - N/A   Mostly Cloudy
4:30 PM 84.2 °F 90.9 °F 73.4 °F 70% 29.80 in 5.6 mi West 16.1 mph - N/A   Mostly Cloudy
5:00 PM 84.2 °F 90.9 °F 73.4 °F 70% 29.80 in 5.6 mi West 15.0 mph - N/A   Mostly Cloudy
5:30 PM 84.2 °F 90.9 °F 73.4 °F 70% 29.80 in 5.6 mi WNW 13.8 mph - N/A   Mostly Cloudy
6:00 PM 84.2 °F 90.9 °F 73.4 °F 70% 29.80 in 5.6 mi WNW 11.5 mph - N/A   Mostly Cloudy
6:30 PM 84.2 °F 90.9 °F 73.4 °F 70% 29.83 in 5.0 mi West 12.7 mph - N/A   Mostly Cloudy
7:00 PM 83 °F - 77 °F 78% 29.79 in 4 mi WNW 11.5 mph - - Rain Light Rain
7:00 PM 80.6 °F 86.2 °F 75.2 °F 84% 29.83 in 4.3 mi West 11.5 mph - N/A Rain Light Rain
7:30 PM 78.8 °F - 73.4 °F 83% 29.83 in 4.3 mi NNW 8.1 mph - N/A   Mostly Cloudy
8:00 PM 77.0 °F - 71.6 °F 83% 29.86 in 4.3 mi NW 6.9 mph - N/A   Mostly Cloudy
8:30 PM 77.0 °F - 71.6 °F 83% 29.89 in 4.3 mi West 6.9 mph - N/A   Mostly Cloudy
9:00 PM 75.2 °F - 71.6 °F 89% 29.92 in 1.9 mi WNW 21.9 mph 34.5 mph N/A Rain Rain
9:30 PM 75.2 °F - 71.6 °F 89% 29.89 in 1.9 mi SW 3.5 mph - N/A Rain Light Rain
10:00 PM 77 °F - 74 °F 88% 29.91 in 3 mi WNW 5.8 mph - - Rain Light Rain
10:00 PM 75.2 °F - 71.6 °F 89% 29.83 in 1.9 mi WNW 17.3 mph - N/A Rain Rain
10:30 PM 75.2 °F - 69.8 °F 83% 29.92 in 1.9 mi WNW 5.8 mph - N/A Rain Rain
11:00 PM 75.2 °F - 69.8 °F 83% 29.92 in 4.3 mi North 5.8 mph - N/A   Mostly Cloudy